Tracking 19846 objects as of 20-Sep-2019
HD Live streaming from Space Station
objects crossing your sky now

INTASAT

Track INTASAT now!
10-day predictions
INTASAT is classified as:


NORAD ID: 7531
Int'l Code: 1974-089C
Perigee: 1,448.4 km
Apogee: 1,465.7 km
Inclination: 101.8 °
Period: 114.9 minutes
Semi major axis: 7828 km
RCS: 0.5293 m2 (medium)
Launch date: November 15, 1974
Source: Spain (SPN)
Launch site: AIR FORCE WESTERN TEST RANGE (AFWTR)
aabbcc
Your satellite tracking list
Your tracking list is empty




NASA's NSSDC Master Catalog

Two Line Element Set (TLE):
1  7531U 74089C   19262.91519382 -.00000061 +00000-0 -10042-3 0  9991
2  7531 101.7542 229.6769 0011036 175.4967 246.7985 12.53486760051761
Source of the keplerian elements: AFSPC